This is the latest recevied weather packets stored in our database for station/object GBTWP-2. If no packets are shown the sender has not sent any weather packets the latest 10 day(s).
| Time | Temp. | Humidity | Pressure | Rain* | Wind** | Luminosity | Snow |
|---|---|---|---|---|---|---|---|
| 1787498820 | 20° C | 71% | 1016.5 hPa | 0 mm | - | 208 W/m² | - |
| 1787498519 | 19.44° C | 72% | 1016.3 hPa | 0 mm | - | 516 W/m² | - |
| 1787498220 | 19.44° C | 72% | 1016.5 hPa | 0 mm | - | 554 W/m² | - |
| 1787497919 | 19.44° C | 72% | 1016.4 hPa | 0 mm | - | 537 W/m² | - |
| 1787497620 | 19.44° C | 74% | 1016.5 hPa | 0 mm | - | 365 W/m² | - |
| 1787497319 | 18.89° C | 74% | 1016.5 hPa | 0 mm | - | 542 W/m² | - |
| 1787497020 | 19.44° C | 75% | 1016.4 hPa | 0 mm | - | 520 W/m² | - |
| 1787496719 | 18.89° C | 75% | 1016.4 hPa | 0 mm | - | 485 W/m² | - |
| 1787496420 | 18.89° C | 76% | 1016.4 hPa | 0 mm | - | 460 W/m² | - |
| 1787496119 | 17.78° C | 78% | 1016.5 hPa | 0 mm | - | 313 W/m² | - |
| 1787495820 | 18.89° C | 76% | 1016.5 hPa | 0 mm | - | 99 W/m² | - |
| 1787495519 | 18.89° C | 78% | 1016.4 hPa | 0 mm | - | 479 W/m² | - |
| 1787495220 | 18.89° C | 77% | 1016.5 hPa | 0 mm | - | 265 W/m² | - |
| 1787494919 | 18.33° C | 79% | 1016.4 hPa | 0 mm | - | 397 W/m² | - |
| 1787494621 | 18.33° C | 79% | 1016.5 hPa | 0 mm | - | 305 W/m² | - |
| 1787494317 | 17.78° C | 81% | 1016.4 hPa | 0 mm | - | 413 W/m² | - |
| 1787494020 | 17.78° C | 82% | 1016.2 hPa | 0 mm | - | 167 W/m² | - |
| 1787493720 | 17.22° C | 83% | 1016.3 hPa | 0 mm | - | 319 W/m² | - |
| 1787493420 | 17.22° C | 83% | 1016.2 hPa | 0 mm | - | 283 W/m² | - |
| 1787493120 | 17.22° C | 82% | 1016.2 hPa | 0 mm | - | 157 W/m² | - |
| 1787492820 | 17.22° C | 83% | 1016.4 hPa | 0 mm | - | 260 W/m² | - |
| 1787492519 | 17.22° C | 83% | 1016.4 hPa | 0 mm | - | 238 W/m² | - |
| 1787492220 | 16.67° C | 84% | 1016.4 hPa | 0 mm | - | 118 W/m² | - |
| 1787491919 | 16.67° C | 84% | 1016.2 hPa | 0 mm | - | 204 W/m² | - |
| 1787491620 | 16.67° C | 84% | 1016.3 hPa | 0 mm | - | 182 W/m² | - |
* Rain latest hour (hover to see other rain measurements)
** Current wind speed in m/s (hover to see current wind gust speed)